Time,TemperatureF,DewpointF,PressureIn,WindDirection,WindDirectionDegrees,WindSpeedMPH,WindSpeedGustMPH,Humidity,HourlyPrecipIn,Conditions,Clouds,dailyrainin,SoftwareType,DateUTC
2013-06-29 00:31:00,68.0,57.0,29.94,North,360,0.0,0.0,69,0.00,,,0.00,,2013-06-29 05:31:00,
2013-06-29 00:41:00,68.0,57.0,29.94,North,360,0.0,0.0,69,0.00,,,0.00,,2013-06-29 05:41:00,
2013-06-29 07:02:00,59.0,56.0,29.99,North,360,0.0,0.0,91,0.00,,,0.00,,2013-06-29 12:02:00,
2013-06-29 07:12:00,59.0,56.0,29.99,North,360,0.0,0.0,91,0.00,,,0.00,,2013-06-29 12:12:00,
2013-06-29 07:22:00,60.0,57.0,29.99,North,360,0.0,0.0,91,0.00,,,0.00,,2013-06-29 12:22:00,
2013-06-29 07:34:00,60.0,57.0,29.99,North,360,0.0,0.0,91,0.00,,,0.00,,2013-06-29 12:34:00,
2013-06-29 07:43:00,61.0,58.0,29.99,North,360,0.0,0.0,91,0.00,,,0.00,,2013-06-29 12:43:00,
2013-06-29 07:53:00,63.0,60.0,29.99,NE,48,0.0,0.0,91,0.00,,,0.00,,2013-06-29 12:53:00,
2013-06-29 08:02:00,63.0,60.0,29.99,NE,48,0.0,0.0,91,0.00,,,0.00,,2013-06-29 13:02:00,
2013-06-29 08:11:00,64.0,60.0,29.99,NNE,26,0.0,0.0,88,0.00,,,0.00,,2013-06-29 13:11:00,
2013-06-29 08:23:00,67.0,62.0,29.98,NNE,24,0.0,0.0,85,0.00,,,0.00,,2013-06-29 13:23:00,
2013-06-29 08:34:00,67.0,62.0,29.98,NNE,24,0.0,0.0,85,0.00,,,0.00,,2013-06-29 13:34:00,
2013-06-29 08:43:00,72.0,62.0,29.99,North,355,2.0,5.0,72,0.00,,,0.00,,2013-06-29 13:43:00,
2013-06-29 08:53:00,75.0,63.0,29.99,North,5,1.0,5.0,67,0.00,,,0.00,,2013-06-29 13:53:00,
2013-06-29 09:02:00,75.0,63.0,29.99,North,5,1.0,5.0,67,0.00,,,0.00,,2013-06-29 14:02:00,
2013-06-29 09:12:00,76.0,62.0,29.99,NNW,344,4.0,9.0,61,0.00,,,0.00,,2013-06-29 14:12:00,
2013-06-29 09:23:00,77.0,61.0,29.99,WNW,296,4.0,10.0,58,0.00,,,0.00,,2013-06-29 14:23:00,
2013-06-29 09:33:00,77.0,61.0,29.99,WNW,296,4.0,10.0,58,0.00,,,0.00,,2013-06-29 14:33:00,
2013-06-29 09:44:00,79.0,60.0,29.99,WNW,295,4.0,11.0,53,0.00,,,0.00,,2013-06-29 14:44:00,
2013-06-29 09:53:00,80.0,59.0,29.99,North,10,4.0,12.0,49,0.00,,,0.00,,2013-06-29 14:53:00,
2013-06-29 10:01:00,80.0,59.0,29.99,North,10,4.0,12.0,49,0.00,,,0.00,,2013-06-29 15:01:00,
2013-06-29 10:11:00,81.0,59.0,29.99,NNE,27,2.0,15.0,48,0.00,,,0.00,,2013-06-29 15:11:00,
2013-06-29 10:22:00,80.0,59.0,29.99,North,351,3.0,9.0,48,0.00,,,0.00,,2013-06-29 15:22:00,
2013-06-29 10:33:00,80.0,59.0,29.99,North,351,3.0,9.0,48,0.00,,,0.00,,2013-06-29 15:33:00,
2013-06-29 10:42:00,81.0,61.0,29.98,NNW,338,3.0,15.0,50,0.00,,,0.00,,2013-06-29 15:42:00,
2013-06-29 10:53:00,83.0,58.0,29.98,WNW,296,3.0,17.0,43,0.00,,,0.00,,2013-06-29 15:53:00,
2013-06-29 11:01:00,83.0,58.0,29.98,WNW,296,3.0,17.0,43,0.00,,,0.00,,2013-06-29 16:01:00,
2013-06-29 11:12:00,84.0,58.0,29.97,NNW,348,3.0,13.0,42,0.00,,,0.00,,2013-06-29 16:12:00,
2013-06-29 11:22:00,84.0,58.0,29.97,NNW,332,4.0,16.0,41,0.00,,,0.00,,2013-06-29 16:22:00,
2013-06-29 11:33:00,84.0,58.0,29.97,NNW,332,4.0,16.0,41,0.00,,,0.00,,2013-06-29 16:33:00,
2013-06-29 11:43:00,84.0,59.0,29.97,NW,313,5.0,16.0,43,0.00,,,0.00,,2013-06-29 16:43:00,
2013-06-29 11:53:00,85.0,59.0,29.96,North,350,6.0,17.0,41,0.00,,,0.00,,2013-06-29 16:53:00,
2013-06-29 12:01:00,85.0,59.0,29.96,North,350,6.0,17.0,41,0.00,,,0.00,,2013-06-29 17:01:00,
2013-06-29 12:22:00,86.0,59.0,29.96,WNW,290,5.0,15.0,40,0.00,,,0.00,,2013-06-29 17:22:00,
2013-06-29 12:33:00,86.0,59.0,29.96,WNW,290,5.0,15.0,40,0.00,,,0.00,,2013-06-29 17:33:00,
2013-06-29 12:42:00,85.0,58.0,29.95,NW,311,8.0,17.0,40,0.00,,,0.00,,2013-06-29 17:42:00,
2013-06-29 12:52:00,86.0,59.0,29.95,NNW,336,9.0,17.0,40,0.00,,,0.00,,2013-06-29 17:52:00,
2013-06-29 13:01:00,86.0,59.0,29.95,NNW,336,9.0,17.0,40,0.00,,,0.00,,2013-06-29 18:01:00,
2013-06-29 13:12:00,86.0,57.0,29.95,NW,305,9.0,19.0,38,0.00,,,0.00,,2013-06-29 18:12:00,
2013-06-29 13:22:00,87.0,59.0,29.94,North,351,2.0,15.0,39,0.00,,,0.00,,2013-06-29 18:22:00,
2013-06-29 13:34:00,87.0,59.0,29.94,North,351,2.0,15.0,39,0.00,,,0.00,,2013-06-29 18:34:00,
2013-06-29 13:43:00,87.0,58.0,29.93,NW,307,10.0,17.0,37,0.00,,,0.00,,2013-06-29 18:43:00,
2013-06-29 13:52:00,88.0,58.0,29.93,North,5,12.0,18.0,36,0.00,,,0.00,,2013-06-29 18:52:00,
2013-06-29 14:01:00,88.0,58.0,29.93,North,5,12.0,18.0,36,0.00,,,0.00,,2013-06-29 19:01:00,
2013-06-29 14:12:00,87.0,58.0,29.93,NNE,29,6.0,16.0,38,0.00,,,0.00,,2013-06-29 19:12:00,
2013-06-29 14:22:00,87.0,58.0,29.92,WNW,282,5.0,17.0,38,0.00,,,0.00,,2013-06-29 19:22:00,
2013-06-29 14:34:00,87.0,58.0,29.92,WNW,282,5.0,17.0,38,0.00,,,0.00,,2013-06-29 19:34:00,
2013-06-29 14:43:00,88.0,58.0,29.92,NNW,336,6.0,20.0,37,0.00,,,0.00,,2013-06-29 19:43:00,
2013-06-29 14:54:00,89.0,59.0,29.91,NW,317,6.0,17.0,37,0.00,,,0.00,,2013-06-29 19:54:00,
2013-06-29 15:11:00,89.0,59.0,29.91,NNE,33,7.0,15.0,37,0.00,,,0.00,,2013-06-29 20:11:00,
2013-06-29 15:23:00,88.0,58.0,29.91,North,5,8.0,14.0,36,0.00,,,0.00,,2013-06-29 20:23:00,
2013-06-29 15:33:00,88.0,58.0,29.91,North,5,8.0,14.0,36,0.00,,,0.00,,2013-06-29 20:33:00,
2013-06-29 15:43:00,88.0,57.0,29.91,NNW,332,6.0,19.0,35,0.00,,,0.00,,2013-06-29 20:43:00,
2013-06-29 15:52:00,88.0,57.0,29.90,NNE,18,5.0,14.0,35,0.00,,,0.00,,2013-06-29 20:52:00,
2013-06-29 16:02:00,88.0,57.0,29.90,NNE,18,5.0,14.0,35,0.00,,,0.00,,2013-06-29 21:02:00,
2013-06-29 16:11:00,89.0,58.0,29.90,NNE,29,7.0,15.0,35,0.00,,,0.00,,2013-06-29 21:11:00,
2013-06-29 16:22:00,88.0,56.0,29.90,NNE,26,7.0,20.0,34,0.00,,,0.00,,2013-06-29 21:22:00,
2013-06-29 16:32:00,88.0,56.0,29.90,NNE,26,7.0,20.0,34,0.00,,,0.00,,2013-06-29 21:32:00,
2013-06-29 16:52:00,89.0,58.0,29.90,NNW,344,6.0,15.0,35,0.00,,,0.00,,2013-06-29 21:52:00,
2013-06-29 17:01:00,89.0,58.0,29.90,NNW,344,6.0,15.0,35,0.00,,,0.00,,2013-06-29 22:01:00,
2013-06-29 17:11:00,88.0,55.0,29.90,NW,326,6.0,16.0,33,0.00,,,0.00,,2013-06-29 22:11:00,
2013-06-29 17:21:00,88.0,55.0,29.89,NW,323,4.0,17.0,33,0.00,,,0.00,,2013-06-29 22:21:00,
2013-06-29 17:33:00,88.0,55.0,29.89,NW,323,4.0,17.0,33,0.00,,,0.00,,2013-06-29 22:33:00,
2013-06-29 17:43:00,88.0,54.0,29.89,SSE,148,1.0,15.0,32,0.00,,,0.00,,2013-06-29 22:43:00,
2013-06-29 17:53:00,88.0,54.0,29.89,North,355,7.0,13.0,32,0.00,,,0.00,,2013-06-29 22:53:00,
2013-06-29 18:02:00,88.0,54.0,29.89,North,355,7.0,13.0,32,0.00,,,0.00,,2013-06-29 23:02:00,
2013-06-29 18:43:00,86.0,55.0,29.89,WNW,286,3.0,14.0,35,0.00,,,0.00,,2013-06-29 23:43:00,
2013-06-29 18:52:00,86.0,54.0,29.88,NW,325,3.0,13.0,34,0.00,,,0.00,,2013-06-29 23:52:00,
2013-06-29 19:02:00,86.0,54.0,29.88,NW,325,3.0,13.0,34,0.00,,,0.00,,2013-06-30 00:02:00,
2013-06-29 19:11:00,86.0,53.0,29.89,NNW,333,2.0,15.0,32,0.00,,,0.00,,2013-06-30 00:11:00,
2013-06-29 19:22:00,85.0,53.0,29.89,North,350,4.0,10.0,33,0.00,,,0.00,,2013-06-30 00:22:00,
2013-06-29 19:33:00,85.0,53.0,29.89,North,350,4.0,10.0,33,0.00,,,0.00,,2013-06-30 00:33:00,
2013-06-29 19:43:00,84.0,52.0,29.89,North,350,5.0,16.0,33,0.00,,,0.00,,2013-06-30 00:43:00,
2013-06-29 19:52:00,84.0,53.0,29.89,WNW,294,4.0,16.0,35,0.00,,,0.00,,2013-06-30 00:52:00,
2013-06-29 20:01:00,84.0,53.0,29.89,WNW,294,4.0,16.0,35,0.00,,,0.00,,2013-06-30 01:01:00,
2013-06-29 20:11:00,83.0,52.0,29.89,NW,317,4.0,13.0,35,0.00,,,0.00,,2013-06-30 01:11:00,
2013-06-29 20:22:00,82.0,52.0,29.90,NNW,336,2.0,9.0,35,0.00,,,0.00,,2013-06-30 01:22:00,
2013-06-29 20:33:00,82.0,52.0,29.90,NNW,336,2.0,9.0,35,0.00,,,0.00,,2013-06-30 01:33:00,
2013-06-29 20:44:00,81.0,52.0,29.90,North,360,2.0,7.0,37,0.00,,,0.00,,2013-06-30 01:44:00,
2013-06-29 20:53:00,80.0,53.0,29.91,NNW,348,1.0,4.0,39,0.00,,,0.00,,2013-06-30 01:53:00,
2013-06-29 21:02:00,80.0,53.0,29.91,NNW,348,1.0,4.0,39,0.00,,,0.00,,2013-06-30 02:02:00,
2013-06-29 21:11:00,78.0,53.0,29.91,NNE,19,0.0,4.0,42,0.00,,,0.00,,2013-06-30 02:11:00,
2013-06-29 21:23:00,77.0,53.0,29.91,NW,318,0.0,4.0,43,0.00,,,0.00,,2013-06-30 02:23:00,
2013-06-29 21:33:00,77.0,53.0,29.91,NW,318,0.0,4.0,43,0.00,,,0.00,,2013-06-30 02:33:00,
2013-06-29 21:43:00,76.0,52.0,29.92,ENE,64,0.0,6.0,44,0.00,,,0.00,,2013-06-30 02:43:00,
2013-06-29 21:53:00,75.0,52.0,29.92,NNE,14,1.0,3.0,45,0.00,,,0.00,,2013-06-30 02:53:00,
2013-06-29 22:01:00,75.0,52.0,29.92,NNE,14,1.0,3.0,45,0.00,,,0.00,,2013-06-30 03:01:00,
2013-06-29 22:12:00,74.0,52.0,29.93,NNE,14,0.0,1.0,47,0.00,,,0.00,,2013-06-30 03:12:00,
2013-06-29 22:23:00,73.0,53.0,29.93,NE,36,0.0,0.0,49,0.00,,,0.00,,2013-06-30 03:23:00,
2013-06-29 22:33:00,73.0,53.0,29.93,NE,36,0.0,0.0,49,0.00,,,0.00,,2013-06-30 03:33:00,
2013-06-29 22:43:00,72.0,53.0,29.94,NE,36,0.0,0.0,52,0.00,,,0.00,,2013-06-30 03:43:00,
2013-06-29 22:53:00,70.0,53.0,29.95,NE,36,0.0,0.0,54,0.00,,,0.00,,2013-06-30 03:53:00,
2013-06-29 23:01:00,70.0,53.0,29.95,NE,36,0.0,0.0,54,0.00,,,0.00,,2013-06-30 04:01:00,
2013-06-29 23:12:00,69.0,53.0,29.95,NE,36,0.0,0.0,57,0.00,,,0.00,,2013-06-30 04:12:00,
2013-06-29 23:22:00,68.0,54.0,29.95,NE,36,0.0,0.0,60,0.00,,,0.00,,2013-06-30 04:22:00,
2013-06-29 23:33:00,68.0,54.0,29.95,NE,36,0.0,0.0,60,0.00,,,0.00,,2013-06-30 04:33:00,
2013-06-29 23:43:00,67.0,54.0,29.96,NE,36,0.0,0.0,62,0.00,,,0.00,,2013-06-30 04:43:00,
2013-06-29 23:53:00,66.0,54.0,29.96,NE,36,0.0,0.0,65,0.00,,,0.00,,2013-06-30 04:53:00,